Tracking 19288 objects as of 20-Nov-2018
HD Live streaming from Space Station
objects crossing your sky now

SKIPPER

Track SKIPPER now!
10-day predictions
SKIPPER is classified as:


NORAD ID: 23752
Int'l Code: 1995-072B
Perigee: 809.2 km
Apogee: 816.6 km
Inclination: 99.0 °
Period: 101.0 minutes
Semi major axis: 7183 km
RCS: 0.7042 m2 (medium)
Launch date: December 28, 1995
Source: United States (US)
Launch site: TYURATAM MISSILE AND SPACE COMPLEX (TTMTR)
aabbcc
Your satellite tracking list
Your tracking list is empty




NASA's NSSDC Master Catalog

Two Line Element Set (TLE):
1 23752U 95072B   18323.92574460 -.00000022 +00000-0 +10196-4 0  9992
2 23752 098.9769 309.6647 0005127 195.6622 164.4399 14.25815232191112
Source of the keplerian elements: AFSPC